• în România
  • Lista ţărilor
  • Pe 7 zile
  • Temperatura apei
  • Hartă satelitară
  • Meteo pe hartă
  • Widget-uri
  • user-avatar
    Intrare

    Meteo pe oră la Ramushki

    Astăzi, 22 Octombrie, Luni

    Timp Temperatura Precipitaţii Vânt Presiune Umiditate
    00:00 +5°C° 0 mm 1 m/s 767 mmHg 81%
    01:00 +5°C° 0 mm 1 m/s 767 mmHg 83%
    02:00 +5°C° 0 mm 1 m/s 767 mmHg 84%
    03:00 +4°C° 0 mm 1 m/s 767 mmHg 85%
    04:00 +4°C° 0 mm 1 m/s 767 mmHg 86%
    05:00 +3°C° 0 mm 0 m/s 767 mmHg 87%
    06:00 +2°C° 0 mm 0 m/s 767 mmHg 88%
    07:00 +4°C° 0 mm 0 m/s 767 mmHg 82%
    08:00 +5°C° 0 mm 0 m/s 767 mmHg 77%
    09:00 +6°C° 0 mm 0 m/s 767 mmHg 70%
    10:00 +8°C° 0 mm 1 m/s 767 mmHg 65%
    11:00 +8°C° 0 mm 1 m/s 767 mmHg 60%
    12:00 +9°C° 0 mm 1 m/s 767 mmHg 55%
    13:00 +10°C° 0 mm 1 m/s 766 mmHg 54%
    14:00 +10°C° 0 mm 1 m/s 766 mmHg 53%
    15:00 +9°C° 0 mm 2 m/s 766 mmHg 51%
    16:00 +8°C° 0 mm 2 m/s 766 mmHg 55%
    17:00 +7°C° 0 mm 2 m/s 765 mmHg 59%
    18:00 +6°C° 0 mm 2 m/s 765 mmHg 62%
    19:00 +6°C° 0 mm 2 m/s 765 mmHg 63%
    20:00 +5°C° 0 mm 2 m/s 765 mmHg 64%
    21:00 +4°C° 0 mm 3 m/s 764 mmHg 65%
    22:00 +4°C° 0 mm 3 m/s 764 mmHg 65%
    23:00 +4°C° 0 mm 3 m/s 764 mmHg 65%

    Mâine, 23 Octombrie, Marţi

    Timp Temperatura Precipitaţii Vânt Presiune Umiditate
    00:00 +4°C° 0 mm 3 m/s 763 mmHg 65%
    01:00 +4°C° 0 mm 4 m/s 763 mmHg 64%
    02:00 +4°C° 0 mm 4 m/s 763 mmHg 64%
    03:00 +4°C° 0 mm 4 m/s 763 mmHg 64%
    04:00 +4°C° 0 mm 4 m/s 762 mmHg 62%
    05:00 +4°C° 0 mm 4 m/s 761 mmHg 61%
    06:00 +5°C° 0 mm 4 m/s 761 mmHg 60%
    07:00 +5°C° 0 mm 5 m/s 761 mmHg 56%
    08:00 +6°C° 0 mm 5 m/s 760 mmHg 53%
    09:00 +7°C° 0 mm 5 m/s 760 mmHg 50%
    10:00 +8°C° 0 mm 6 m/s 759 mmHg 46%
    11:00 +9°C° 0 mm 6 m/s 759 mmHg 43%
    12:00 +10°C° 0 mm 6 m/s 758 mmHg 39%
    13:00 +10°C° 0 mm 6 m/s 757 mmHg 41%
    14:00 +10°C° 0 mm 5 m/s 757 mmHg 43%
    15:00 +10°C° 0 mm 5 m/s 756 mmHg 45%
    16:00 +9°C° 0.1 mm 5 m/s 756 mmHg 49%
    17:00 +9°C° 0.1 mm 5 m/s 755 mmHg 54%
    18:00 +8°C° 0.1 mm 5 m/s 754 mmHg 59%
    19:00 +9°C° 0.2 mm 5 m/s 754 mmHg 60%
    20:00 +9°C° 0.2 mm 5 m/s 753 mmHg 62%
    21:00 +9°C° 0.2 mm 5 m/s 753 mmHg 64%
    22:00 +9°C° 0 mm 5 m/s 752 mmHg 65%
    23:00 +9°C° 0 mm 5 m/s 751 mmHg 66%

    Poimâine, 24 Octombrie, Miercuri

    Timp Temperatura Precipitaţii Vânt Presiune Umiditate
    00:00 +9°C° 0 mm 5 m/s 751 mmHg 67%
    01:00 +10°C° 0.1 mm 4 m/s 751 mmHg 70%
    02:00 +10°C° 0.1 mm 4 m/s 750 mmHg 74%
    03:00 +10°C° 0.1 mm 4 m/s 750 mmHg 78%
    04:00 +10°C° 0 mm 4 m/s 750 mmHg 80%
    05:00 +10°C° 0 mm 4 m/s 749 mmHg 82%
    06:00 +10°C° 0 mm 4 m/s 749 mmHg 84%
    07:00 +10°C° 0.1 mm 4 m/s 749 mmHg 84%
    08:00 +11°C° 0.1 mm 4 m/s 749 mmHg 84%
    09:00 +10°C° 0.1 mm 5 m/s 749 mmHg 84%
    10:00 +12°C° 0 mm 5 m/s 749 mmHg 77%
    11:00 +12°C° 0 mm 5 m/s 749 mmHg 71%
    12:00 +13°C° 0 mm 6 m/s 748 mmHg 64%
    13:00 +13°C° 0 mm 5 m/s 748 mmHg 61%
    14:00 +13°C° 0 mm 5 m/s 748 mmHg 59%
    15:00 +13°C° 0 mm 5 m/s 748 mmHg 56%
    16:00 +12°C° 0 mm 4 m/s 749 mmHg 59%
    17:00 +11°C° 0 mm 4 m/s 749 mmHg 62%
    18:00 +10°C° 0 mm 3 m/s 749 mmHg 64%
    19:00 +10°C° 0 mm 3 m/s 749 mmHg 66%
    20:00 +10°C° 0 mm 4 m/s 749 mmHg 69%
    21:00 +8°C° 0 mm 4 m/s 749 mmHg 71%
    22:00 +8°C° 0 mm 4 m/s 749 mmHg 71%
    23:00 +8°C° 0 mm 4 m/s 749 mmHg 72%

    25 Octombrie, Joi

    Timp Temperatura Precipitaţii Vânt Presiune Umiditate
    00:00 +8°C° 0 mm 4 m/s 749 mmHg 72%
    01:00 +9°C° 0 mm 5 m/s 748 mmHg 75%
    02:00 +9°C° 0 mm 5 m/s 748 mmHg 77%
    03:00 +9°C° 0 mm 5 m/s 748 mmHg 80%
    04:00 +9°C° 0.7 mm 6 m/s 748 mmHg 82%
    05:00 +9°C° 0.7 mm 6 m/s 747 mmHg 85%
    06:00 +10°C° 0.7 mm 6 m/s 747 mmHg 88%
    07:00 +10°C° 0.2 mm 6 m/s 746 mmHg 81%
    08:00 +11°C° 0.2 mm 7 m/s 746 mmHg 74%
    09:00 +12°C° 0.2 mm 7 m/s 746 mmHg 67%
    10:00 +12°C° 0.1 mm 7 m/s 745 mmHg 63%
    11:00 +14°C° 0.1 mm 6 m/s 745 mmHg 60%
    12:00 +14°C° 0.1 mm 6 m/s 744 mmHg 56%
    13:00 +15°C° 0 mm 6 m/s 744 mmHg 55%
    14:00 +15°C° 0 mm 6 m/s 743 mmHg 54%
    15:00 +16°C° 0 mm 6 m/s 743 mmHg 53%
    16:00 +15°C° 0 mm 5 m/s 743 mmHg 55%
    17:00 +15°C° 0 mm 5 m/s 742 mmHg 57%
    18:00 +14°C° 0 mm 4 m/s 742 mmHg 58%
    19:00 +14°C° 0 mm 4 m/s 742 mmHg 59%
    20:00 +14°C° 0 mm 4 m/s 742 mmHg 61%
    21:00 +14°C° 0 mm 3 m/s 741 mmHg 62%
    22:00 +13°C° 0.1 mm 3 m/s 741 mmHg 66%
    23:00 +12°C° 0.1 mm 3 m/s 741 mmHg 71%

    26 Octombrie, Vineri

    Timp Temperatura Precipitaţii Vânt Presiune Umiditate
    00:00 +12°C° 0.1 mm 3 m/s 742 mmHg 76%
    01:00 +10°C° 1.3 mm 3 m/s 742 mmHg 78%
    02:00 +9°C° 1.3 mm 3 m/s 742 mmHg 79%
    03:00 +8°C° 1.3 mm 3 m/s 742 mmHg 81%
    04:00 +7°C° 1.4 mm 3 m/s 742 mmHg 81%
    05:00 +7°C° 1.4 mm 3 m/s 742 mmHg 82%
    06:00 +7°C° 1.4 mm 3 m/s 742 mmHg 83%
    07:00 +6°C° 0.1 mm 4 m/s 743 mmHg 79%
    08:00 +7°C° 0.1 mm 4 m/s 743 mmHg 75%
    09:00 +7°C° 0.1 mm 5 m/s 744 mmHg 70%
    10:00 +7°C° 0 mm 5 m/s 744 mmHg 66%
    11:00 +8°C° 0 mm 5 m/s 744 mmHg 62%
    12:00 +8°C° 0 mm 5 m/s 744 mmHg 57%
    13:00 +8°C° 0 mm 5 m/s 744 mmHg 57%
    14:00 +8°C° 0 mm 5 m/s 745 mmHg 58%
    15:00 +8°C° 0 mm 5 m/s 745 mmHg 58%
    16:00 +7°C° 0 mm 4 m/s 745 mmHg 62%
    17:00 +7°C° 0 mm 4 m/s 746 mmHg 65%
    18:00 +7°C° 0 mm 3 m/s 746 mmHg 69%
    19:00 +5°C° 0 mm 4 m/s 746 mmHg 70%
    20:00 +5°C° 0 mm 4 m/s 747 mmHg 71%
    21:00 +5°C° 0 mm 4 m/s 747 mmHg 73%
    22:00 +4°C° 0 mm 4 m/s 747 mmHg 74%
    23:00 +4°C° 0 mm 4 m/s 748 mmHg 75%

    27 Octombrie, Sâmbătă

    Timp Temperatura Precipitaţii Vânt Presiune Umiditate
    00:00 +4°C° 0 mm 4 m/s 748 mmHg 76%
    01:00 +3°C° 0 mm 4 m/s 748 mmHg 77%
    02:00 +3°C° 0 mm 4 m/s 748 mmHg 79%
    03:00 +3°C° 0 mm 4 m/s 749 mmHg 80%
    04:00 +3°C° 0.1 mm 4 m/s 749 mmHg 80%
    05:00 +3°C° 0.1 mm 4 m/s 750 mmHg 81%
    06:00 +3°C° 0.1 mm 4 m/s 750 mmHg 81%
    07:00 +2°C° 0 mm 5 m/s 751 mmHg 78%
    08:00 +2°C° 0 mm 5 m/s 752 mmHg 74%
    09:00 +2°C° 0 mm 6 m/s 752 mmHg 71%
    10:00 +3°C° 0 mm 6 m/s 753 mmHg 66%
    11:00 +3°C° 0 mm 6 m/s 753 mmHg 62%
    12:00 +3°C° 0 mm 6 m/s 754 mmHg 57%
    13:00 +3°C° 0 mm 6 m/s 754 mmHg 56%
    14:00 +3°C° 0 mm 6 m/s 755 mmHg 55%
    15:00 +4°C° 0 mm 6 m/s 756 mmHg 54%
    16:00 +3°C° 0 mm 5 m/s 756 mmHg 58%
    17:00 +3°C° 0 mm 5 m/s 757 mmHg 62%
    18:00 +3°C° 0 mm 4 m/s 758 mmHg 66%
    19:00 +3°C° 0 mm 4 m/s 758 mmHg 68%
    20:00 +3°C° 0 mm 4 m/s 759 mmHg 70%
    21:00 +1°C° 0 mm 4 m/s 759 mmHg 72%
    22:00 +1°C° 0 mm 4 m/s 760 mmHg 74%
    23:00 +1°C° 0 mm 4 m/s 760 mmHg 76%

    28 Octombrie, Duminică

    Timp Temperatura Precipitaţii Vânt Presiune Umiditate
    00:00 +1°C° 0 mm 4 m/s 761 mmHg 78%
    01:00 +1°C° 0 mm 4 m/s 761 mmHg 79%
    02:00 0°C° 0 mm 4 m/s 761 mmHg 80%
    03:00 0°C° 0 mm 4 m/s 762 mmHg 81%
    04:00 0°C° 0 mm 4 m/s 762 mmHg 81%
    05:00 0°C° 0 mm 4 m/s 762 mmHg 81%
    06:00 0°C° 0 mm 5 m/s 762 mmHg 80%
    07:00 +1°C° 0 mm 5 m/s 762 mmHg 76%
    08:00 +2°C° 0 mm 6 m/s 762 mmHg 71%
    09:00 +3°C° 0 mm 7 m/s 762 mmHg 66%
    10:00 +5°C° 0 mm 7 m/s 762 mmHg 65%
    11:00 +6°C° 0 mm 7 m/s 762 mmHg 65%
    12:00 +7°C° 0 mm 8 m/s 762 mmHg 64%
    13:00 +8°C° 0 mm 7 m/s 761 mmHg 67%
    14:00 +8°C° 0 mm 7 m/s 761 mmHg 71%
    15:00 +9°C° 0 mm 7 m/s 761 mmHg 75%
    16:00 +9°C° 0.3 mm 7 m/s 761 mmHg 77%
    17:00 +9°C° 0.3 mm 7 m/s 761 mmHg 80%
    18:00 +9°C° 0.3 mm 8 m/s 762 mmHg 83%
    19:00 +9°C° 0.1 mm 7 m/s 761 mmHg 81%
    20:00 +9°C° 0.1 mm 7 m/s 761 mmHg 79%
    21:00 +10°C° 0.1 mm 7 m/s 761 mmHg 78%
    22:00 +10°C° 0 mm 7 m/s 762 mmHg 78%
    23:00 +9°C° 0 mm 7 m/s 762 mmHg 78%
    Arată mai mult